Weather observations for the past three days for
Deering, Deering/New Airport
| Date | Time (akdt) | Wind (kph) | Vis. (km) | Weather | Sky Cond. | Temperature (ºC) | Relative Humidity | Wind Chill (°C) | Heat Index (°C) | Pressure | Precipitation (cm) | ||||||
|---|---|---|---|---|---|---|---|---|---|---|---|---|---|---|---|---|---|
| Air | Dwpt | 6 hour | altimeter (cm) | sea level (mb) | 1 hr | 3 hr | 6 hr | ||||||||||
| Max. | Min. | ||||||||||||||||
| 07 | 19:53 | NW 15 | 16.09 | Fair | CLR | -2.8 | -7.2 | 72% | -7 | 76.53 | 1020.3 | ||||||
| 07 | 18:53 | NW 15 | 16.09 | Fair | CLR | -2.2 | -7.2 | 69% | -7 | 76.53 | 1020.4 | ||||||
| 07 | 17:53 | NW 17 | 16.09 | Fair | CLR | -2.2 | -7.8 | 66% | -7 | 76.56 | 1020.5 | ||||||
| 07 | 16:53 | NW 15 | 16.09 | Fair | CLR | -2.2 | -8.3 | 63% | -7 | 76.56 | 1020.8 | ||||||
| 07 | 15:53 | NW 19 | 16.09 | Fair | CLR | -2.2 | -8.9 | -1.7 | -5.6 | 60% | -7 | 76.58 | 1020.8 | ||||
| 07 | 14:53 | NW 17 | 16.09 | Partly Cloudy | SCT017 | -3.3 | -7.8 | 71% | -8 | 76.58 | 1020.8 | ||||||
| 07 | 13:53 | NW 19 | 16.09 | Mostly Cloudy | BKN016 | -3.3 | -7.8 | 71% | -9 | 76.56 | 1020.7 | ||||||
| 07 | 12:53 | W 22 | 16.09 | Mostly Cloudy | BKN014 | -3.3 | -8.3 | 69% | -9 | 76.56 | 1020.5 | ||||||
| 07 | 10:53 | W 24 | 16.09 | Overcast | OVC011 | -5 | -8.3 | 78% | -12 | 76.53 | 1020.3 | ||||||
| 07 | 09:53 | W 26 | 16.09 | Overcast | OVC012 | -5 | -7.8 | -5 | -6.1 | 81% | -12 | 76.53 | 1020.3 | ||||
| 07 | 08:53 | W 26 | 16.09 | Overcast | OVC013 | -5.6 | -7.8 | 85% | -13 | 76.53 | 1020.2 | ||||||
| 07 | 07:53 | W 26 | 14.48 | Light Snow | BKN014 OVC020 | -6.1 | -8.3 | 85% | -13 | 76.5 | 1020.0 | ||||||
| 07 | 06:53 | W 26 | 9.66 | Light Snow Fog/Mist | OVC015 | -6.1 | -7.8 | 88% | -13 | 76.5 | 1019.9 | ||||||
| 07 | 05:53 | W 28 | 11.27 | Light Snow | BKN016 BKN021 OVC060 | -6.1 | -8.3 | 85% | -14 | 76.48 | 1019.8 | ||||||
| 07 | 04:53 | W 30 | 16.09 | Overcast | OVC016 | -6.1 | -8.3 | 85% | -14 | 76.48 | 1019.8 | ||||||
| 07 | 03:53 | W 24 | 16.09 | Overcast | OVC014 | -6.1 | -7.8 | -5 | -6.7 | 88% | -13 | 76.48 | 1019.6 | ||||
| 07 | 02:53 | W 26 | 16.09 | Overcast | SCT013 BKN025 OVC095 | -6.7 | -8.3 | 89% | -14 | 76.48 | 1019.5 | ||||||
| 07 | 01:53 | W 30 | 16.09 | Overcast | BKN014 OVC100 | -6.1 | -8.3 | 85% | -14 | 76.45 | 1019.4 | ||||||
| 07 | 00:53 | W 22 | 16.09 | Overcast | OVC013 | -5.6 | -7.8 | 85% | -12 | 76.45 | 1019.4 | ||||||
| 06 | 23:53 | W 19 | 16.09 | Mostly Cloudy | BKN015 | -6.1 | -8.3 | 85% | -12 | 76.43 | 1019.1 | ||||||
| 06 | 22:53 | W 26 | 16.09 | A Few Clouds | FEW014 | -6.1 | -8.3 | 85% | -13 | 76.4 | 1018.8 | ||||||
| 06 | 21:53 | W 26 | 16.09 | Mostly Cloudy | BKN015 | -5.6 | -8.3 | -3.3 | -5.6 | 82% | -13 | 76.4 | 1018.7 | ||||
| 06 | 20:53 | W 30 | 16.09 | A Few Clouds | FEW014 | -4.4 | -7.8 | 77% | -12 | 76.4 | 1018.5 | ||||||
| 06 | 19:53 | W 28 | 16.09 | Partly Cloudy | SCT015 | -3.3 | -7.8 | 71% | -10 | 76.38 | 1018.5 | ||||||
| 06 | 18:53 | W 28 | 16.09 | Fair | CLR | -3.9 | -7.8 | 75% | -11 | 76.35 | 1018.1 | ||||||
| 06 | 17:53 | W 28 | 16.09 | Fair | CLR | -3.9 | -7.8 | 75% | -11 | 76.33 | 1017.7 | ||||||
| 06 | 16:53 | W 28 | 14.48 | Overcast | OVC049 | -3.9 | -8.3 | 72% | -11 | 76.33 | 1017.6 | ||||||
| 06 | 14:53 | W 24 | 14.48 | Overcast | OVC014 | -4.4 | -7.8 | 77% | -11 | 76.3 | 1017.2 | ||||||
| 06 | 13:53 | W 28 | 9.66 | Light Snow | BKN015 BKN021 OVC030 | -3.9 | -7.8 | 75% | -11 | 76.3 | 1017.2 | ||||||
| 06 | 12:53 | W 30 | 16.09 | Overcast | FEW013 OVC055 | -4.4 | -7.8 | 77% | -12 | 76.25 | 1016.8 | ||||||
| 06 | 11:53 | W 28 | 16.09 | Overcast | FEW012 OVC050 | -5 | -8.3 | 78% | -12 | 76.25 | 1016.5 | ||||||
| 06 | 10:53 | W 30 | 16.09 | Overcast | SCT010 OVC050 | -5 | -7.8 | 81% | -12 | 76.25 | 1016.5 | ||||||
| 06 | 09:53 | W 24 | 16.09 | Overcast | OVC007 | -6.7 | -8.3 | -6.1 | -7.8 | 89% | -14 | 76.25 | 1016.5 | ||||
| 06 | 08:53 | W 20 | 16.09 | Overcast | OVC007 | -7.2 | -8.9 | 88% | -14 | 76.23 | 1016.2 | ||||||
| 06 | 07:53 | W 19 | 16.09 | Overcast | OVC009 | -7.2 | -8.9 | 88% | -14 | 76.2 | 1015.9 | ||||||
| 06 | 06:53 | NW 19 | 16.09 | Overcast | OVC013 | -7.2 | -8.9 | 88% | -14 | 76.17 | 1015.5 | ||||||
| 06 | 05:53 | W 24 | 16.09 | Overcast | OVC013 | -6.1 | -8.3 | 85% | -13 | 76.15 | 1015.3 | ||||||
| 06 | 04:53 | W 24 | 16.09 | Overcast | BKN017 OVC043 | -6.1 | -7.8 | 88% | -13 | 76.12 | 1015.0 | ||||||
| 06 | 03:53 | SW 11 | 16.09 | Overcast | OVC010 | -7.2 | -8.3 | -4.4 | -7.8 | 92% | -12 | 76.12 | 1015.0 | ||||
| 06 | 02:53 | W 17 | 16.09 | Overcast | OVC011 | -6.7 | -7.8 | 92% | -13 | 76.12 | 1014.8 | ||||||
| 06 | 01:53 | W 24 | 16.09 | Mostly Cloudy | BKN012 | -6.7 | -7.8 | 92% | -14 | 76.1 | 1014.7 | ||||||
| 06 | 00:53 | W 15 | 16.09 | Fair | CLR | -7.8 | -8.9 | 92% | -13 | 76.1 | 1014.4 | ||||||
| 05 | 23:53 | W 17 | 16.09 | Fair | CLR | -6.7 | -8.3 | 89% | -13 | 76.05 | 1014.0 | ||||||
| 05 | 22:53 | W 17 | 16.09 | Fair | CLR | -5.6 | -7.8 | 85% | -11 | 76.05 | 1013.9 | ||||||
| 05 | 21:53 | W 20 | 16.09 | Fair | CLR | -4.4 | -7.8 | -1.1 | -4.4 | 77% | -10 | 76.02 | 1013.6 | ||||
| 05 | 20:53 | NW 22 | 16.09 | Fair | CLR | -3.3 | -7.2 | 75% | -9 | 76 | 1013.3 | ||||||
| 05 | 19:53 | NW 26 | 16.09 | Fair | CLR | -2.8 | -7.2 | 72% | -9 | 76 | 1013.2 | ||||||
| 05 | 18:53 | NW 22 | 16.09 | Fair | CLR | -2.2 | -6.7 | 72% | -8 | 75.97 | 1013.0 | ||||||
| 05 | 17:53 | NW 24 | 16.09 | Fair | CLR | -2.2 | -6.1 | 75% | -8 | 75.95 | 1012.6 | ||||||
| 05 | 16:53 | W 26 | 16.09 | Mostly Cloudy | BKN016 | -2.2 | -5.6 | 78% | -8 | 75.95 | 1012.5 | ||||||
| 05 | 15:53 | W 31 G 44 | 16.09 | Mostly Cloudy | BKN014 | -1.7 | -6.1 | -1.7 | -5.6 | 72% | -8 | 75.95 | 1012.4 | ||||
| 05 | 14:53 | W 33 G 43 | 16.09 | Overcast and Breezy | OVC012 | -2.2 | -6.1 | 75% | -9 | 75.95 | 1012.5 | ||||||
| 05 | 13:53 | W 30 | 16.09 | Overcast | OVC010 | -3.3 | -6.1 | 81% | -10 | 75.92 | 1012.4 | ||||||
| 05 | 12:53 | W 30 G 43 | 16.09 | Overcast | OVC010 | -3.9 | -6.7 | 81% | -11 | 75.95 | 1012.4 | ||||||
| 05 | 11:53 | W 30 G 41 | 16.09 | Overcast | OVC009 | -4.4 | -7.2 | 81% | -12 | 75.92 | 1012.3 | ||||||
| 05 | 10:53 | W 26 | 16.09 | Overcast | OVC008 | -5 | -7.2 | 85% | -12 | 75.95 | 1012.6 | ||||||
| 05 | 09:53 | W 26 | 16.09 | Overcast | OVC008 | -5.6 | -7.2 | -4.4 | -5.6 | 89% | -13 | 75.95 | 1012.6 | ||||
| 05 | 08:53 | W 28 | 16.09 | Overcast | OVC009 | -5.6 | -7.2 | 89% | -13 | 75.95 | 1012.7 | ||||||
| 05 | 07:53 | W 28 | 16.09 | Overcast | OVC010 | -5 | -7.2 | 85% | -12 | 75.92 | 1012.3 | ||||||
| 05 | 06:53 | NW 28 | 16.09 | Overcast | OVC011 | -5 | -7.2 | 85% | -12 | 75.95 | 1012.4 | ||||||
| 05 | 05:53 | W 22 | 16.09 | Overcast | OVC011 | -5 | -7.2 | 85% | -11 | 75.95 | 1012.6 | ||||||
| 05 | 04:53 | W 22 | 16.09 | Overcast | OVC012 | -4.4 | -6.7 | 84% | -11 | 75.95 | 1012.6 | ||||||
| 05 | 03:53 | W 22 | 16.09 | Overcast | OVC011 | -4.4 | -6.7 | -3.3 | -5.6 | 84% | -11 | 75.97 | 1013.0 | ||||
| 05 | 02:53 | NW 24 | 16.09 | Overcast | OVC010 | -5 | -6.7 | 88% | -12 | 76.02 | 1013.5 | ||||||
| 05 | 01:53 | NW 20 | 16.09 | Overcast | OVC011 | -4.4 | -6.7 | 84% | -10 | 76.05 | 1013.9 | ||||||
| 05 | 00:53 | W 20 | 16.09 | Mostly Cloudy | BKN012 | -5 | -6.7 | 88% | -11 | 76.05 | 1014.0 | ||||||
| 04 | 23:53 | NW 20 | 16.09 | Fair | CLR | -5 | -6.7 | 88% | -11 | 76.07 | 1014.3 | ||||||
| 04 | 22:53 | NW 20 | 16.09 | Fair | CLR | -4.4 | -6.1 | 88% | -10 | 76.1 | 1014.6 | ||||||
| 04 | 21:53 | NW 17 | 16.09 | Fair | CLR | -3.3 | -5.6 | -0.6 | -3.3 | 84% | -8 | 76.12 | 1015.0 | ||||
| 04 | 20:53 | NW 19 | 16.09 | Fair | CLR | -2.2 | -5 | 81% | -7 | 76.15 | 1015.4 | ||||||
| Date | Time (akdt) | Wind (kph) | Vis. (km) | Weather | Sky Cond. | Air | Dwpt | Max. | Min. | Relative Humidity | Wind Chill (°C) | Heat Index (°C) | altimeter (cm) | sea level (mb) | 1 hr | 3 hr | 6 hr |
| 6 hour | |||||||||||||||||
| Temperature (ºC) | Pressure | Precipitation (cm) | |||||||||||||||